This demonstration page uses our WeatherBlox Daily Observations layout. Learn more.

Left ArrowRight Arrow

Hourly Observations for September 22, 2022

Temp ( °F °C ) Dew Point ( °F °C ) Humidity (%) Winds ( mph kmh ) Pressure ( in mb ) Visibility ( mi km ) Precip ( " mm )
12:53 am 00:53 Partly Cloudy 70 21.1 67 19.4 90 90 W 3 6 29.84 1010 10 16 0.00 0.00
1:53 am 01:53 Partly Cloudy 70 21.1 68 20 93 93 Calm 29.83 1010 10 16 0.00 0.00
2:53 am 02:53 Partly Cloudy 73 22.8 66 18.9 79 79 NW 6 9 29.85 1011 10 16 0.00 0.00
3:53 am 03:53 Cloudy 71 21.7 60 15.6 68 68 N 8 13 29.87 1012 10 16 0.00 0.00
4:53 am 04:53 Cloudy 68 20 55 12.8 63 63 NNW 9 15 29.90 1013 10 16 0.00 0.00
5:53 am 05:53 Partly Cloudy 65 18.3 52 11.1 63 63 NNW 10 17 29.93 1014 10 16 0.00 0.00
6:53 am 06:53 Mostly Clear 63 17.2 52 11.1 67 67 NNW 7 11 29.96 1014 10 16 0.00 0.00
7:53 am 07:53 Mostly Cloudy 63 17.2 51 10.6 65 65 NNW 8 13 29.98 1015 10 16 0.00 0.00
8:53 am 08:53 Sunny 64 17.8 52 11.1 65 65 NNW 14 22 30.01 1016 10 16 0.00 0.00
9:53 am 09:53 Sunny 65 18.3 53 11.7 65 65 NNW 13 20 30.02 1017 10 16 0.00 0.00
10:53 am 10:53 Mostly Sunny 67 19.4 50 10 55 55 N 15 24 30.04 1017 10 16 0.00 0.00
11:53 am 11:53 Partly Cloudy 67 19.4 48 8.9 51 51 NW 13 20 30.05 1018 10 16 0.00 0.00
12:53 pm 12:53 Mostly Cloudy 67 19.4 46 7.8 47 47 NNW 14 22 30.06 1018 10 16 0.00 0.00
1:53 pm 13:53 Mostly Sunny 70 21.1 49 9.4 47 47 NW 14 22 30.05 1018 10 16 0.00 0.00
2:53 pm 14:53 Partly Cloudy 69 20.6 45 7.2 42 42 NNW 15 24 30.05 1018 10 16 0.00 0.00
3:53 pm 15:53 Sunny 69 20.6 45 7.2 42 42 NW 15 24 30.06 1018 10 16 0.00 0.00
4:53 pm 16:53 Sunny 68 20 43 6.1 40 40 NNW 12 19 30.06 1018 10 16 0.00 0.00
5:53 pm 17:53 Mostly Sunny 68 20 43 6.1 40 40 NNW 13 20 30.07 1018 10 16 0.00 0.00
6:53 pm 18:53 Mostly Sunny 65 18.3 42 5.6 43 43 N 9 15 30.09 1019 10 16 0.00 0.00
7:53 pm 19:53 Mostly Clear 60 15.6 43 6.1 53 53 N 5 7 30.11 1020 10 16 0.00 0.00
8:53 pm 20:53 Clear 58 14.4 42 5.6 55 55 N 5 7 30.13 1020 10 16 0.00 0.00
9:53 pm 21:53 Clear 52 11.1 46 7.8 80 80 Calm 30.15 1021 10 16 0.00 0.00
10:53 pm 22:53 Clear 51 10.6 45 7.2 79 79 NW 3 6 30.16 1021 10 16 0.00 0.00
11:53 pm 23:53 Clear 51 10.6 44 6.7 77 77 NNW 6 9 30.18 1022 10 16 0.00 0.00

Powered by AerisWeather